Kezdőlap
METAR-TAF:

METAR-TAF

Repülőterek :

Jacksonville Municipal Airport

Jacksonville, Illinois, Amerikai Egyesült Államok

földrajzi szélesség: 39-46-27N, földrajzi hosszúság: 090-14-19W, magasság: 190 m

Jelenlegi meteorológiai megfigyelések

A jelentés 20 perccel ezelõtt készült, 10:55 UTC
Délnyugati szél 4 kt
Hőmérséklet 14°C
Páratartalom 77%
Légköri nyomás 1015 hPa
Látótávolság: 16.1 km
Derült ég

METAR: KIJX 171055Z AUTO 23004KT 10SM CLR 14/10 A2998 RMK AO2 T01360100

Idő: 06:15 (11:15 UTC)


TAF: hiányzik

Meteorológiai megfigyelések és előrejelzések több, mint 4000 repülőtéren (METAR és TAF jelentéseket).

A térképen piros és sárga pontok jelzik az elérhető meteorológiai állomásokat.

Mozgassa az egeret a pont fölött, hogy megjelenjen az állomás neve.

Azután kattintson az időjárási megfigyelések és előrejelzések megtekintéséhez.

A térkép megváltoztatása: kattintson a fekete keresztel jelölt zöld gombra ráközelítéshez, a vonallal jelölt zöld gombra távolításhoz, vagy a zöld nyilakra a szomszédos térképek eléréséhez.


METAR-TAF: